FW2931 Weather Reports


time (UTC)temp
C
wind
direction
speed
KPH
gust
KPH
rain 1hr
cm
rain 24hr
cm
rain mn
cm
humidity
%
barometer
mb
20260506080725 16 293 3.2 3.2 0.00 0.00 0.00 79 1010.3
20260506080217 16 293 0.0 3.2 0.00 0.00 0.00 79 1010.3
20260506073113 17 293 0.0 3.2 0.00 0.00 0.00 77 1010.6
20260506072602 17 293 0.0 3.2 0.00 0.00 0.00 75 1010.7
20260506072053 17 293 0.0 3.2 0.00 0.00 0.00 75 1010.9
20260506071543 17 293 0.0 3.2 0.00 0.00 0.00 75 1010.7
20260506071035 17 293 3.2 3.2 0.00 0.00 0.00 75 1010.8
20260506070522 17 293 0.0 3.2 0.00 0.00 0.00 75 1010.9
20260506062401 18 293 1.6 6.4 0.00 0.00 0.00 73 1011.2
20260506061854 18 315 3.2 0.0 0.00 0.00 0.00 73 1011.0
20260506061152 17 315 1.6 3.2 0.00 0.00 0.00 73 1010.8
20260506060641 17 315 3.2 3.2 0.00 0.00 0.00 73 1010.7
20260506060134 17 315 3.2 3.2 0.00 0.00 0.00 73 1011.0
20260506050953 18 293 1.6 3.2 0.00 0.00 0.00 70 1010.9
20260506050440 18 270 0.0 3.2 0.00 0.00 0.00 70 1010.9
20260506044910 18 248 1.6 6.4 0.00 0.00 0.00 70 1010.7
20260506044410 18 248 3.2 6.4 0.00 0.00 0.00 70 1010.8
20260506043850 18 248 0.0 6.4 0.00 0.00 0.00 71 1010.7
20260506043346 18 225 3.2 6.4 0.00 0.00 0.00 70 1010.7
20260506042829 18 225 3.2 6.4 0.00 0.00 0.00 70 1010.7
20260506042319 18 270 3.2 3.2 0.00 0.00 0.00 71 1010.8
20260506041812 18 270 0.0 3.2 0.00 0.00 0.00 70 1010.9
20260506041258 19 270 0.0 3.2 0.00 0.00 0.00 69 1010.8
20260506040748 19 270 0.0 3.2 0.00 0.00 0.00 68 1010.7
20260506035727 19 270 0.0 3.2 0.00 0.00 0.00 68 1011.1
20260506035221 19 270 1.6 3.2 0.00 0.00 0.00 69 1011.1
20260506034708 19 293 0.0 3.2 0.00 0.00 0.00 68 1011.3
20260506033648 19 270 0.0 3.2 0.00 0.00 0.00 68 1011.2
20260506033137 19 293 1.6 3.2 0.00 0.00 0.00 68 1011.2
20260506032117 20 293 3.2 3.2 0.00 0.00 0.00 67 1011.6
20260506031606 20 293 0.0 3.2 0.00 0.00 0.00 68 1011.9
20260506031057 20 315 1.6 3.2 0.00 0.00 0.00 68 1011.7
20260506030546 20 315 0.0 3.2 0.00 0.00 0.00 68 1011.9
20260506030051 20 315 0.0 3.2 0.00 0.00 0.00 68 1011.9
20260506025016 20 315 0.0 3.2 0.00 0.00 0.00 67 1012.1
20260506024507 20 315 1.6 3.2 0.00 0.00 0.00 66 1012.1
20260506023955 20 315 3.2 6.4 0.00 0.00 0.00 66 1012.0
20260506023448 20 315 3.2 6.4 0.00 0.00 0.00 66 1012.1
20260506022936 20 68 3.2 3.2 0.00 0.00 0.00 65 1012.4
20260506022425 20 68 0.0 6.4 0.00 0.00 0.00 65 1012.5
20260506021915 21 23 3.2 6.4 0.00 0.00 0.00 64 1012.3
20260506021418 21 293 1.6 6.4 0.00 0.00 0.00 62 1012.4
20260506020857 21 293 3.2 6.4 0.00 0.00 0.00 62 1012.4
20260506020344 21 293 3.2 6.4 0.00 0.00 0.00 62 1012.5
20260506015834 21 315 3.2 6.4 0.00 0.00 0.00 62 1012.7
20260506015324 21 315 4.8 6.4 0.00 0.00 0.00 63 1012.4
20260506014813 21 293 3.2 6.4 0.00 0.00 0.00 63 1012.7
20260506014307 21 270 1.6 6.4 0.00 0.00 0.00 64 1012.7
20260506013754 21 270 3.2 6.4 0.00 0.00 0.00 63 1012.6
20260506012734 21 315 4.8 9.7 0.00 0.00 0.00 62 1012.7
20260506011716 21 315 3.2 6.4 0.00 0.00 0.00 62 1012.4
20260506011204 21 315 3.2 6.4 0.00 0.00 0.00 62 1012.5
20260506010653 21 293 3.2 9.7 0.00 0.00 0.00 61 1012.6
20260506010148 21 23 3.2 9.7 0.00 0.00 0.00 60 1012.5
20260506005132 21 270 1.6 6.4 0.00 0.00 0.00 60 1012.4
20260506004102 21 225 1.6 6.4 0.00 0.00 0.00 60 1012.1
20260506003553 21 270 0.0 3.2 0.00 0.00 0.00 59 1012.2
20260506003045 21 248 1.6 6.4 0.00 0.00 0.00 60 1012.0
20260506002536 22 248 1.6 6.4 0.00 0.00 0.00 59 1011.9
20260506002021 21 270 1.6 3.2 0.00 0.00 0.00 60 1012.2
20260506001515 21 293 0.0 6.4 0.00 0.00 0.00 60 1011.9
20260506001001 22 293 1.6 6.4 0.00 0.00 0.00 59 1011.8
20260506000451 22 293 1.6 3.2 0.00 0.00 0.00 59 1011.8
20260505235944 21 293 0.0 3.2 0.00 0.00 0.00 60 1011.8
20260505235431 22 248 1.6 3.2 0.00 0.00 0.00 60 1011.7
20260505234920 22 270 1.6 3.2 0.00 0.00 0.00 60 1011.6
20260505234410 22 293 1.6 3.2 0.00 0.00 0.00 59 1011.6
20260505233901 22 248 1.6 3.2 0.00 0.00 0.00 59 1011.6
20260505233353 22 270 1.6 3.2 0.00 0.00 0.00 59 1011.3
20260505232852 22 248 1.6 3.2 0.00 0.00 0.00 59 1011.2
20260505232331 22 270 0.0 3.2 0.00 0.00 0.00 58 1011.2
20260505231820 22 270 1.6 3.2 0.00 0.00 0.00 57 1011.1
20260505231309 22 248 1.6 3.2 0.00 0.00 0.00 57 1010.9
20260505230802 22 248 1.6 3.2 0.00 0.00 0.00 57 1010.7
20260505230249 22 248 1.6 3.2 0.00 0.00 0.00 56 1011.0
20260505225739 22 248 1.6 3.2 0.00 0.00 0.00 58 1010.7
20260505225229 22 248 1.6 3.2 0.00 0.00 0.00 58 1010.4
20260505224720 22 248 0.0 3.2 0.00 0.00 0.00 58 1010.5
20260505224213 23 248 0.0 3.2 0.00 0.00 0.00 58 1010.7
20260505223658 23 248 1.6 3.2 0.00 0.00 0.00 57 1010.5
20260505223149 22 248 0.0 3.2 0.00 0.00 0.00 57 1010.6
20260505222639 23 248 0.0 3.2 0.00 0.00 0.00 57 1010.3
20260505222128 23 248 0.0 3.2 0.00 0.00 0.00 56 1010.3
20260505221621 23 248 0.0 3.2 0.00 0.00 0.00 56 1010.2
20260505221109 23 293 0.0 3.2 0.00 0.00 0.00 56 1010.0
20260505220557 23 270 0.0 3.2 0.00 0.00 0.00 55 1010.0
20260505220100 23 293 3.2 6.4 0.00 0.00 0.00 55 1009.9
20260505215538 23 270 1.6 6.4 0.00 0.00 0.00 55 1009.9
20260505215031 23 270 0.0 3.2 0.00 0.00 0.00 55 1009.8
20260505214518 23 293 1.6 6.4 0.00 0.00 0.00 55 1009.8
20260505213457 24 248 1.6 3.2 0.00 0.00 0.00 53 1009.8
20260505212440 25 248 1.6 6.4 0.00 0.00 0.00 49 1009.4
20260505211932 26 225 3.2 6.4 0.00 0.00 0.00 47 1009.4
20260505211416 26 225 3.2 6.4 0.00 0.00 0.00 46 1009.5
20260505210911 26 203 6.4 9.7 0.00 0.00 0.00 44 1009.2
20260505205848 27 225 6.4 9.7 0.00 0.00 0.00 42 1009.3
20260505205335 27 203 3.2 11.3 0.00 0.00 0.00 42 1009.2
20260505204315 28 225 3.2 9.7 0.00 0.00 0.00 41 1009.0
20260505203817 28 270 3.2 9.7 0.00 0.00 0.00 40 1008.9
20260505203257 28 225 3.2 11.3 0.00 0.00 0.00 41 1008.8
20260505202746 28 180 3.2 11.3 0.00 0.00 0.00 41 1008.8
20260505202236 28 225 1.6 6.4 0.00 0.00 0.00 40 1008.7
20260505201221 30 225 0.0 6.4 0.00 0.00 0.00 38 1008.8
20260505200708 28 225 3.2 6.4 0.00 0.00 0.00 39 1009.0
20260505200155 29 225 1.6 6.4 0.00 0.00 0.00 39 1008.8
20260505195134 30 225 1.6 3.2 0.00 0.00 0.00 37 1008.8
20260505194623 30 225 0.0 3.2 0.00 0.00 0.00 38 1009.0
20260505193604 29 225 3.2 3.2 0.00 0.00 0.00 38 1008.9
20260505193053 30 203 0.0 3.2 0.00 0.00 0.00 37 1009.0
20260505192033 28 203 0.0 6.4 0.00 0.00 0.00 41 1009.0
20260505191526 28 180 3.2 6.4 0.00 0.00 0.00 39 1009.0
20260505191012 28 225 3.2 6.4 0.00 0.00 0.00 40 1009.0
20260505190503 28 225 3.2 6.4 0.00 0.00 0.00 39 1009.0
20260505185952 28 158 3.2 6.4 0.00 0.00 0.00 39 1009.1
20260505185443 28 158 3.2 6.4 0.00 0.00 0.00 40 1009.2
20260505184422 29 158 1.6 6.4 0.00 0.00 0.00 38 1009.2
20260505183911 28 158 1.6 6.4 0.00 0.00 0.00 40 1009.4
20260505183402 28 158 1.6 6.4 0.00 0.00 0.00 39 1009.5
20260505182852 28 158 0.0 9.7 0.00 0.00 0.00 38 1009.8
20260505182345 28 203 0.0 9.7 0.00 0.00 0.00 38 1009.7
20260505181322 28 203 1.6 6.4 0.00 0.00 0.00 39 1009.7
20260505180811 27 180 4.8 9.7 0.00 0.00 0.00 39 1009.9
20260505180314 27 225 4.8 9.7 0.00 0.00 0.00 40 1009.8
20260505175754 27 180 3.2 9.7 0.00 0.00 0.00 39 1010.0
20260505175240 27 158 3.2 6.4 0.00 0.00 0.00 40 1010.0
20260505174730 27 203 3.2 6.4 0.00 0.00 0.00 40 1009.9
20260505174220 27 225 3.2 9.7 0.00 0.00 0.00 40 1010.2
20260505173715 27 158 3.2 11.3 0.00 0.00 0.00 41 1010.2
20260505173203 27 225 3.2 11.3 0.00 0.00 0.00 41 1010.3
20260505172655 27 135 4.8 9.7 0.00 0.00 0.00 41 1010.1
20260505171630 26 158 3.2 11.3 0.00 0.00 0.00 41 1010.5
20260505170613 26 225 3.2 11.3 0.00 0.00 0.00 42 1010.7
20260505170100 26 203 4.8 11.3 0.00 0.00 0.00 43 1010.7
20260505165549 26 225 6.4 11.3 0.00 0.00 0.00 44 1010.7
20260505165039 26 225 3.2 12.9 0.00 0.00 0.00 44 1010.8
20260505164528 26 225 8.0 14.5 0.00 0.00 0.00 44 1011.1
20260505164021 25 135 6.4 14.5 0.00 0.00 0.00 46 1011.2
20260505163508 25 225 8.0 14.5 0.00 0.00 0.00 46 1011.2
20260505162958 25 180 8.0 17.7 0.00 0.00 0.00 46 1011.5
20260505161938 25 225 6.4 14.5 0.00 0.00 0.00 46 1011.7
20260505161431 25 248 6.4 14.5 0.00 0.00 0.00 47 1011.8
20260505153306 23 158 6.4 14.5 0.00 0.00 0.00 49 1012.3
20260505152757 23 225 6.4 14.5 0.00 0.00 0.00 50 1012.3
20260505152249 23 225 8.0 14.5 0.00 0.00 0.00 50 1012.1
20260505151736 22 203 9.7 12.9 0.00 0.00 0.00 51 1012.3
20260505151226 23 158 3.2 11.3 0.00 0.00 0.00 50 1012.1
20260505150716 22 180 3.2 9.7 0.00 0.00 0.00 50 1012.2
20260505150206 22 180 3.2 9.7 0.00 0.00 0.00 50 1012.3
20260505140518 21 90 3.2 6.4 0.00 0.00 0.00 57 1012.5
20260505124745 17 68 3.2 3.2 0.00 0.00 0.00 66 1013.4
20260505123721 16 45 3.2 3.2 0.00 0.00 0.00 69 1013.2
20260505123212 16 23 1.6 3.2 0.00 0.00 0.00 70 1013.1
20260505122702 16 0 1.6 3.2 0.00 0.00 0.00 71 1013.4
20260505121641 15 338 3.2 3.2 0.00 0.00 0.00 74 1013.4
20260505121130 15 0 1.6 3.2 0.00 0.00 0.00 76 1013.5
20260505120620 15 0 1.6 3.2 0.00 0.00 0.00 76 1013.5
20260505120110 15 0 0.0 3.2 0.00 0.00 0.00 75 1013.4
20260505115603 15 0 0.0 3.2 0.00 0.00 0.00 75 1013.4
20260505115050 14 0 0.0 3.2 0.00 0.00 0.00 76 1013.6
20260505114029 14 0 0.0 3.2 0.00 0.00 0.00 77 1013.1
20260505113520 13 0 1.6 3.2 0.00 0.00 0.00 78 1013.1
20260505112500 13 293 0.0 3.2 0.00 0.00 0.00 79 1013.0
20260505111949 13 293 0.0 3.2 0.00 0.00 0.00 79 1012.9
20260505111440 13 315 3.2 3.2 0.00 0.00 0.00 80 1013.1
20260505110421 13 293 0.0 3.2 0.00 0.00 0.00 80 1012.9
20260505101747 13 293 1.6 3.2 0.00 0.00 0.00 77 1012.2
20260505101250 13 293 3.2 3.2 0.00 0.00 0.00 77 1012.1
20260505100727 13 293 3.2 3.2 0.00 0.00 0.00 77 1012.2
20260505100224 13 315 3.2 3.2 0.00 0.00 0.00 77 1012.1
20260505095720 13 315 3.2 3.2 0.00 0.00 0.00 78 1012.0
20260505095154 13 293 3.2 3.2 0.00 0.00 0.00 77 1011.9
20260505094649 13 293 3.2 3.2 0.00 0.00 0.00 77 1012.1
20260505094136 13 293 3.2 6.4 0.00 0.00 0.00 77 1012.0
20260505092607 13 315 3.2 3.2 0.00 0.00 0.00 78 1012.0
20260505091545 13 293 0.0 3.2 0.00 0.00 0.00 78 1012.2
20260505091035 13 315 3.2 3.2 0.00 0.00 0.00 78 1012.1
20260505090525 13 338 1.6 3.2 0.00 0.00 0.00 79 1012.0
20260505090015 13 338 1.6 3.2 0.00 0.00 0.00 79 1012.0
20260505085508 13 338 3.2 3.2 0.00 0.00 0.00 79 1012.2
20260505084955 13 338 0.0 3.2 0.00 0.00 0.00 77 1012.1
20260505084444 13 338 1.6 3.2 0.00 0.00 0.00 77 1012.2
20260505083424 13 293 1.6 3.2 0.00 0.00 0.00 77 1011.8
20260505082917 13 293 0.0 3.2 0.00 0.00 0.00 77 1011.7
20260505081854 13 270 0.0 3.2 0.00 0.00 0.00 77 1011.9